Time,TemperatureF,DewpointF,PressureIn,WindDirection,WindDirectionDegrees,WindSpeedMPH,WindSpeedGustMPH,Humidity,HourlyPrecipIn,Conditions,Clouds,dailyrainin,SoftwareType,DateUTC
2013-07-08 00:01:00,73.1,0.0,29.90,SW,225,0.0,1.3,0,0.00,,,0.00,WUHU216HW,2013-07-08 04:01:00,
2013-07-08 00:06:00,72.9,0.0,29.90,SSW,203,0.0,1.1,0,0.00,,,0.00,WUHU216HW,2013-07-08 04:06:00,
2013-07-08 00:11:00,72.7,0.0,29.89,SSW,203,0.0,0.0,0,0.00,,,0.00,WUHU216HW,2013-07-08 04:11:00,
2013-07-08 00:16:00,72.7,0.0,29.89,NNW,338,0.0,0.7,0,0.00,,,0.00,WUHU216HW,2013-07-08 04:16:00,
2013-07-08 00:21:00,72.7,0.0,29.89,NNW,338,0.0,0.7,0,0.00,,,0.00,WUHU216HW,2013-07-08 04:21:00,
2013-07-08 00:26:00,72.5,0.0,29.89,NNW,338,0.0,0.0,0,0.00,,,0.00,WUHU216HW,2013-07-08 04:26:00,
2013-07-08 00:31:00,72.4,0.0,29.89,NW,315,0.2,0.4,0,0.00,,,0.00,WUHU216HW,2013-07-08 04:31:00,
2013-07-08 00:36:00,72.5,0.0,29.89,NW,315,0.0,0.4,0,0.00,,,0.00,WUHU216HW,2013-07-08 04:36:00,
2013-07-08 00:41:00,72.5,0.0,29.89,NW,315,0.0,1.8,0,0.00,,,0.00,WUHU216HW,2013-07-08 04:41:00,
2013-07-08 00:46:00,72.5,0.0,29.89,NNW,338,0.0,1.8,0,0.00,,,0.00,WUHU216HW,2013-07-08 04:46:00,
2013-07-08 00:51:00,72.5,0.0,29.88,East,90,0.0,0.7,0,0.00,,,0.00,WUHU216HW,2013-07-08 04:51:00,
2013-07-08 00:56:00,72.4,0.0,29.89,ESE,113,0.4,0.4,0,0.00,,,0.00,WUHU216HW,2013-07-08 04:56:00,
2013-07-08 01:01:00,72.2,0.0,29.89,SW,225,0.4,0.9,0,0.00,,,0.00,WUHU216HW,2013-07-08 05:01:00,
2013-07-08 01:06:00,72.0,0.0,29.88,SSW,203,0.0,0.9,0,0.00,,,0.00,WUHU216HW,2013-07-08 05:06:00,
2013-07-08 01:11:00,72.0,0.0,29.88,SSW,203,0.0,0.4,0,0.00,,,0.00,WUHU216HW,2013-07-08 05:11:00,
2013-07-08 01:16:00,72.2,0.0,29.88,WNW,293,0.4,1.1,0,0.00,,,0.00,WUHU216HW,2013-07-08 05:16:00,
2013-07-08 01:21:00,72.2,0.0,29.88,SW,225,0.7,1.1,0,0.00,,,0.00,WUHU216HW,2013-07-08 05:21:00,
2013-07-08 01:26:00,72.2,0.0,29.88,SW,225,0.4,0.9,0,0.00,,,0.00,WUHU216HW,2013-07-08 05:26:00,
2013-07-08 01:31:00,72.0,0.0,29.88,SW,225,1.1,1.1,0,0.00,,,0.00,WUHU216HW,2013-07-08 05:31:00,
2013-07-08 01:36:00,72.0,0.0,29.89,West,270,0.0,1.1,0,0.00,,,0.00,WUHU216HW,2013-07-08 05:36:00,
2013-07-08 01:41:00,72.0,0.0,29.89,West,270,0.4,1.1,0,0.00,,,0.00,WUHU216HW,2013-07-08 05:41:00,
2013-07-08 01:46:00,72.0,0.0,29.89,West,270,0.2,0.9,0,0.00,,,0.00,WUHU216HW,2013-07-08 05:46:00,
2013-07-08 01:51:00,71.8,0.0,29.89,SW,225,0.0,0.7,0,0.00,,,0.00,WUHU216HW,2013-07-08 05:51:00,
2013-07-08 01:56:00,71.6,0.0,29.89,SW,225,0.4,0.4,0,0.00,,,0.00,WUHU216HW,2013-07-08 05:56:00,
2013-07-08 02:01:00,71.6,0.0,29.89,SW,225,0.0,0.4,0,0.00,,,0.00,WUHU216HW,2013-07-08 06:01:00,
2013-07-08 02:06:00,71.6,0.0,29.90,WSW,248,0.0,0.4,0,0.00,,,0.00,WUHU216HW,2013-07-08 06:06:00,
2013-07-08 02:11:00,71.6,0.0,29.90,West,270,0.0,0.4,0,0.00,,,0.00,WUHU216HW,2013-07-08 06:11:00,
2013-07-08 02:16:00,71.6,0.0,29.89,WSW,248,0.0,0.4,0,0.00,,,0.00,WUHU216HW,2013-07-08 06:16:00,
2013-07-08 02:21:00,71.6,0.0,29.90,WSW,248,0.0,0.0,0,0.00,,,0.00,WUHU216HW,2013-07-08 06:21:00,
2013-07-08 02:26:00,71.6,0.0,29.89,WSW,248,0.0,0.0,0,0.00,,,0.00,WUHU216HW,2013-07-08 06:26:00,
2013-07-08 02:31:00,71.6,0.0,29.89,WSW,248,0.0,0.0,0,0.00,,,0.00,WUHU216HW,2013-07-08 06:31:00,
2013-07-08 02:36:00,71.6,0.0,29.89,WSW,248,0.0,0.0,0,0.00,,,0.00,WUHU216HW,2013-07-08 06:36:00,
2013-07-08 02:41:00,71.8,0.0,29.89,WSW,248,0.0,0.0,0,0.00,,,0.00,WUHU216HW,2013-07-08 06:41:00,
2013-07-08 02:46:00,71.8,0.0,29.89,WSW,248,0.0,0.0,0,0.00,,,0.00,WUHU216HW,2013-07-08 06:46:00,
2013-07-08 02:51:00,71.8,0.0,29.89,WSW,248,0.0,0.0,0,0.00,,,0.00,WUHU216HW,2013-07-08 06:51:00,
2013-07-08 02:56:00,71.8,0.0,29.89,WSW,248,0.0,0.0,0,0.00,,,0.00,WUHU216HW,2013-07-08 06:56:00,
2013-07-08 03:01:00,72.0,0.0,29.89,WSW,248,0.0,0.2,0,0.00,,,0.00,WUHU216HW,2013-07-08 07:01:00,
2013-07-08 03:06:00,72.0,0.0,29.89,WSW,248,0.0,0.2,0,0.00,,,0.00,WUHU216HW,2013-07-08 07:06:00,
2013-07-08 03:11:00,72.0,0.0,29.88,WSW,248,0.0,0.2,0,0.00,,,0.00,WUHU216HW,2013-07-08 07:11:00,
2013-07-08 03:16:00,72.0,0.0,29.88,WNW,293,0.0,0.7,0,0.00,,,0.00,WUHU216HW,2013-07-08 07:16:00,
2013-07-08 03:21:00,72.0,0.0,29.88,WNW,293,0.0,0.7,0,0.00,,,0.00,WUHU216HW,2013-07-08 07:21:00,
2013-07-08 03:26:00,72.0,0.0,29.88,WNW,293,0.2,0.4,0,0.00,,,0.00,WUHU216HW,2013-07-08 07:26:00,
2013-07-08 03:31:00,72.0,0.0,29.88,WNW,293,0.4,0.7,0,0.00,,,0.00,WUHU216HW,2013-07-08 07:31:00,
2013-07-08 03:36:00,72.0,0.0,29.88,WNW,293,0.0,0.7,0,0.00,,,0.00,WUHU216HW,2013-07-08 07:36:00,
2013-07-08 03:41:00,72.2,0.0,29.88,WNW,293,0.0,0.4,0,0.00,,,0.00,WUHU216HW,2013-07-08 07:41:00,
2013-07-08 03:46:00,72.0,0.0,29.88,WNW,293,0.0,0.2,0,0.00,,,0.00,WUHU216HW,2013-07-08 07:46:00,
2013-07-08 03:51:00,72.2,0.0,29.88,WNW,293,0.4,0.9,0,0.00,,,0.00,WUHU216HW,2013-07-08 07:51:00,
2013-07-08 03:56:00,72.2,0.0,29.89,West,270,0.0,0.9,0,0.00,,,0.00,WUHU216HW,2013-07-08 07:56:00,
2013-07-08 04:01:00,72.2,0.0,29.89,WSW,248,0.0,0.4,0,0.00,,,0.00,WUHU216HW,2013-07-08 08:01:00,
2013-07-08 04:06:00,72.0,0.0,29.88,WSW,248,0.0,0.0,0,0.00,,,0.00,WUHU216HW,2013-07-08 08:06:00,
2013-07-08 04:11:00,72.0,0.0,29.89,WSW,248,0.0,0.0,0,0.00,,,0.00,WUHU216HW,2013-07-08 08:11:00,
2013-07-08 04:16:00,72.0,0.0,29.88,WSW,248,0.0,0.0,0,0.00,,,0.00,WUHU216HW,2013-07-08 08:16:00,
2013-07-08 04:21:00,71.8,0.0,29.88,WSW,248,0.0,0.0,0,0.00,,,0.00,WUHU216HW,2013-07-08 08:21:00,
2013-07-08 04:26:00,72.0,0.0,29.88,WSW,248,0.0,0.4,0,0.00,,,0.00,WUHU216HW,2013-07-08 08:26:00,
2013-07-08 04:31:00,72.0,0.0,29.88,WSW,248,0.0,0.4,0,0.00,,,0.00,WUHU216HW,2013-07-08 08:31:00,
2013-07-08 04:36:00,72.0,0.0,29.88,WNW,293,0.4,1.1,0,0.00,,,0.00,WUHU216HW,2013-07-08 08:36:00,
2013-07-08 04:41:00,72.0,0.0,29.88,WNW,293,0.2,1.1,0,0.00,,,0.00,WUHU216HW,2013-07-08 08:41:00,
2013-07-08 04:46:00,72.0,0.0,29.88,WSW,248,0.7,1.1,0,0.00,,,0.00,WUHU216HW,2013-07-08 08:46:00,
2013-07-08 04:51:00,72.0,0.0,29.88,WSW,248,1.1,1.1,0,0.00,,,0.00,WUHU216HW,2013-07-08 08:51:00,
2013-07-08 04:56:00,72.0,0.0,29.89,SW,225,0.2,1.1,0,0.00,,,0.00,WUHU216HW,2013-07-08 08:56:00,
2013-07-08 05:01:00,72.0,0.0,29.89,SW,225,0.0,1.1,0,0.00,,,0.00,WUHU216HW,2013-07-08 09:01:00,
2013-07-08 05:06:00,71.8,0.0,29.89,SW,225,0.0,0.2,0,0.00,,,0.00,WUHU216HW,2013-07-08 09:06:00,
2013-07-08 05:11:00,71.8,0.0,29.89,SW,225,0.0,0.2,0,0.00,,,0.00,WUHU216HW,2013-07-08 09:11:00,
2013-07-08 05:16:00,71.8,0.0,29.89,SW,225,0.0,0.0,0,0.00,,,0.00,WUHU216HW,2013-07-08 09:16:00,
2013-07-08 05:21:00,71.8,0.0,29.88,WSW,248,0.0,0.4,0,0.00,,,0.00,WUHU216HW,2013-07-08 09:21:00,
2013-07-08 05:26:00,71.8,0.0,29.88,WSW,248,0.0,0.4,0,0.00,,,0.00,WUHU216HW,2013-07-08 09:26:00,
2013-07-08 05:30:00,71.6,0.0,29.89,WSW,248,0.0,0.0,0,0.00,,,0.00,WUHU216HW,2013-07-08 09:30:00,
2013-07-08 05:35:00,71.6,0.0,29.89,WSW,248,0.9,1.1,0,0.00,,,0.00,WUHU216HW,2013-07-08 09:35:00,
2013-07-08 05:40:00,71.8,0.0,29.88,WSW,248,0.0,1.1,0,0.00,,,0.00,WUHU216HW,2013-07-08 09:40:00,
2013-07-08 05:45:00,71.8,0.0,29.88,WSW,248,0.0,0.9,0,0.00,,,0.00,WUHU216HW,2013-07-08 09:45:00,
2013-07-08 05:50:00,71.8,0.0,29.88,WSW,248,0.0,0.0,0,0.00,,,0.00,WUHU216HW,2013-07-08 09:50:00,
2013-07-08 05:55:00,71.8,0.0,29.89,West,270,0.7,0.9,0,0.00,,,0.00,WUHU216HW,2013-07-08 09:55:00,
2013-07-08 06:00:00,72.0,0.0,29.89,West,270,0.0,0.9,0,0.00,,,0.00,WUHU216HW,2013-07-08 10:00:00,
2013-07-08 06:05:00,72.0,0.0,29.89,North,0,0.0,0.7,0,0.00,,,0.00,WUHU216HW,2013-07-08 10:05:00,
2013-07-08 06:10:00,72.2,0.0,29.90,NNW,338,0.4,0.4,0,0.00,,,0.00,WUHU216HW,2013-07-08 10:10:00,
2013-07-08 06:15:00,72.4,0.0,29.90,WNW,293,0.0,0.4,0,0.00,,,0.00,WUHU216HW,2013-07-08 10:15:00,
2013-07-08 06:20:00,72.5,0.0,29.90,WSW,248,0.9,1.3,0,0.00,,,0.00,WUHU216HW,2013-07-08 10:20:00,
2013-07-08 06:25:00,72.5,0.0,29.90,West,270,0.4,1.3,0,0.00,,,0.00,WUHU216HW,2013-07-08 10:25:00,
2013-07-08 06:30:00,72.7,0.0,29.90,NNW,338,0.4,1.6,0,0.00,,,0.00,WUHU216HW,2013-07-08 10:30:00,
2013-07-08 06:35:00,73.1,0.0,29.90,NNW,338,0.7,2.7,0,0.00,,,0.00,WUHU216HW,2013-07-08 10:35:00,
2013-07-08 06:40:00,73.3,0.0,29.90,NNW,338,0.4,2.7,0,0.00,,,0.00,WUHU216HW,2013-07-08 10:40:00,
2013-07-08 06:45:00,74.0,0.0,29.90,NW,315,0.7,1.8,0,0.00,,,0.00,WUHU216HW,2013-07-08 10:45:00,
2013-07-08 06:50:00,74.3,0.0,29.90,WNW,293,1.1,3.1,0,0.00,,,0.00,WUHU216HW,2013-07-08 10:50:00,
2013-07-08 06:55:00,74.7,0.0,29.90,WSW,248,0.0,3.1,0,0.00,,,0.00,WUHU216HW,2013-07-08 10:55:00,
2013-07-08 07:00:00,74.9,0.0,29.90,West,270,1.8,1.8,0,0.00,,,0.00,WUHU216HW,2013-07-08 11:00:00,
2013-07-08 07:05:00,75.2,0.0,29.90,SSW,203,0.7,1.8,0,0.00,,,0.00,WUHU216HW,2013-07-08 11:05:00,
2013-07-08 07:10:00,75.6,0.0,29.90,ENE,68,0.4,1.8,0,0.00,,,0.00,WUHU216HW,2013-07-08 11:10:00,
2013-07-08 07:15:00,75.6,0.0,29.90,NNW,338,0.0,1.1,0,0.00,,,0.00,WUHU216HW,2013-07-08 11:15:00,
2013-07-08 07:20:00,76.0,0.0,29.90,WNW,293,0.4,0.9,0,0.00,,,0.00,WUHU216HW,2013-07-08 11:20:00,
2013-07-08 07:25:00,76.0,0.0,29.90,NW,315,1.3,1.3,0,0.00,,,0.00,WUHU216HW,2013-07-08 11:25:00,
2013-07-08 07:30:00,76.1,0.0,29.91,WNW,293,1.8,2.5,0,0.00,,,0.00,WUHU216HW,2013-07-08 11:30:00,
2013-07-08 07:35:00,76.5,0.0,29.91,WNW,293,0.0,2.5,0,0.00,,,0.00,WUHU216HW,2013-07-08 11:35:00,
2013-07-08 07:40:00,76.7,0.0,29.91,NNW,338,0.7,0.9,0,0.00,,,0.00,WUHU216HW,2013-07-08 11:40:00,
2013-07-08 07:45:00,77.0,0.0,29.91,SSW,203,0.2,0.9,0,0.00,,,0.00,WUHU216HW,2013-07-08 11:45:00,
2013-07-08 07:50:00,77.4,0.0,29.91,WNW,293,0.0,0.7,0,0.00,,,0.00,WUHU216HW,2013-07-08 11:50:00,
2013-07-08 07:55:00,77.9,0.0,29.91,ENE,68,0.4,1.3,0,0.00,,,0.00,WUHU216HW,2013-07-08 11:55:00,
2013-07-08 08:00:00,78.5,0.0,29.91,North,0,2.2,2.2,0,0.00,,,0.00,WUHU216HW,2013-07-08 12:00:00,
2013-07-08 08:05:00,78.7,0.0,29.92,NNW,338,1.6,2.5,0,0.00,,,0.00,WUHU216HW,2013-07-08 12:05:00,
2013-07-08 08:10:00,78.8,0.0,29.92,NE,45,2.7,2.7,0,0.00,,,0.00,WUHU216HW,2013-07-08 12:10:00,
2013-07-08 08:15:00,78.8,0.0,29.92,NNW,338,2.5,2.7,0,0.00,,,0.00,WUHU216HW,2013-07-08 12:15:00,
2013-07-08 08:20:00,78.8,0.0,29.92,ENE,68,6.5,6.5,0,0.00,,,0.00,WUHU216HW,2013-07-08 12:20:00,
2013-07-08 08:25:00,78.7,0.0,29.92,NW,315,4.5,6.5,0,0.00,,,0.00,WUHU216HW,2013-07-08 12:25:00,
2013-07-08 08:30:00,78.7,0.0,29.92,NE,45,2.0,6.5,0,0.00,,,0.00,WUHU216HW,2013-07-08 12:30:00,
2013-07-08 08:35:00,78.5,0.0,29.92,ESE,113,1.1,4.5,0,0.00,,,0.00,WUHU216HW,2013-07-08 12:35:00,
2013-07-08 08:40:00,78.5,0.0,29.92,NE,45,4.5,4.5,0,0.00,,,0.00,WUHU216HW,2013-07-08 12:40:00,
2013-07-08 08:45:00,78.5,0.0,29.92,NNE,23,4.0,6.5,0,0.00,,,0.00,WUHU216HW,2013-07-08 12:45:00,
2013-07-08 08:50:00,78.5,0.0,29.92,East,90,3.1,6.5,0,0.00,,,0.00,WUHU216HW,2013-07-08 12:50:00,
2013-07-08 08:55:00,78.3,0.0,29.92,North,0,3.4,6.3,0,0.00,,,0.00,WUHU216HW,2013-07-08 12:55:00,
2013-07-08 09:00:00,78.5,0.0,29.92,ESE,113,2.5,6.3,0,0.00,,,0.00,WUHU216HW,2013-07-08 13:00:00,
2013-07-08 09:05:00,78.5,0.0,29.92,ENE,68,4.0,4.9,0,0.00,,,0.00,WUHU216HW,2013-07-08 13:05:00,
2013-07-08 09:10:00,78.7,0.0,29.92,SSW,203,3.4,6.5,0,0.00,,,0.00,WUHU216HW,2013-07-08 13:10:00,
2013-07-08 09:15:00,78.8,0.0,29.92,ESE,113,3.6,6.5,0,0.00,,,0.00,WUHU216HW,2013-07-08 13:15:00,
2013-07-08 09:20:00,79.0,0.0,29.93,NNE,23,4.7,5.4,0,0.00,,,0.00,WUHU216HW,2013-07-08 13:20:00,
2013-07-08 09:25:00,79.7,0.0,29.92,ENE,68,6.0,6.0,0,0.00,,,0.00,WUHU216HW,2013-07-08 13:25:00,
2013-07-08 09:30:00,80.6,0.0,29.93,NNE,23,1.8,6.0,0,0.00,,,0.00,WUHU216HW,2013-07-08 13:30:00,
2013-07-08 09:35:00,80.8,0.0,29.93,NNE,23,4.9,5.1,0,0.00,,,0.00,WUHU216HW,2013-07-08 13:35:00,
2013-07-08 09:40:00,80.5,0.0,29.93,NNE,23,4.7,7.4,0,0.00,,,0.00,WUHU216HW,2013-07-08 13:40:00,
2013-07-08 09:45:00,80.6,0.0,29.93,NNE,23,5.8,7.4,0,0.00,,,0.00,WUHU216HW,2013-07-08 13:45:00,
2013-07-08 09:50:00,81.0,0.0,29.93,NE,45,5.8,5.8,0,0.00,,,0.00,WUHU216HW,2013-07-08 13:50:00,
2013-07-08 09:55:00,81.4,0.0,29.93,NNE,23,6.0,6.9,0,0.00,,,0.00,WUHU216HW,2013-07-08 13:55:00,
2013-07-08 10:00:00,81.0,0.0,29.94,North,0,4.5,6.9,0,0.00,,,0.00,WUHU216HW,2013-07-08 14:00:00,
2013-07-08 10:05:00,80.8,0.0,29.94,ENE,68,6.3,7.2,0,0.00,,,0.00,WUHU216HW,2013-07-08 14:05:00,
2013-07-08 10:10:00,81.0,0.0,29.94,ENE,68,2.2,7.4,0,0.00,,,0.00,WUHU216HW,2013-07-08 14:10:00,
2013-07-08 10:15:00,80.8,0.0,29.94,WNW,293,1.8,7.4,0,0.00,,,0.00,WUHU216HW,2013-07-08 14:15:00,
2013-07-08 10:20:00,80.6,0.0,29.94,NE,45,2.5,3.6,0,0.00,,,0.00,WUHU216HW,2013-07-08 14:20:00,
2013-07-08 10:25:00,80.3,0.0,29.94,NE,45,2.9,3.6,0,0.00,,,0.00,WUHU216HW,2013-07-08 14:25:00,
2013-07-08 10:30:00,79.9,0.0,29.94,NW,315,1.8,2.9,0,0.00,,,0.00,WUHU216HW,2013-07-08 14:30:00,
2013-07-08 10:35:00,79.9,0.0,29.94,NE,45,5.8,5.8,0,0.00,,,0.00,WUHU216HW,2013-07-08 14:35:00,
2013-07-08 10:40:00,80.6,0.0,29.94,ESE,113,1.1,5.8,0,0.00,,,0.00,WUHU216HW,2013-07-08 14:40:00,
2013-07-08 10:45:00,81.0,0.0,29.94,ENE,68,5.4,5.8,0,0.00,,,0.00,WUHU216HW,2013-07-08 14:45:00,
2013-07-08 10:50:00,81.0,0.0,29.95,ENE,68,6.9,6.9,0,0.00,,,0.00,WUHU216HW,2013-07-08 14:50:00,
2013-07-08 10:55:00,80.8,0.0,29.94,ENE,68,1.8,6.9,0,0.00,,,0.00,WUHU216HW,2013-07-08 14:55:00,
2013-07-08 11:00:00,80.6,0.0,29.94,ESE,113,4.0,6.9,0,0.00,,,0.00,WUHU216HW,2013-07-08 15:00:00,
2013-07-08 11:05:00,80.5,0.0,29.94,East,90,4.0,4.7,0,0.00,,,0.00,WUHU216HW,2013-07-08 15:05:00,
2013-07-08 11:10:00,80.6,0.0,29.94,ENE,68,8.1,8.5,0,0.00,,,0.00,WUHU216HW,2013-07-08 15:10:00,
2013-07-08 11:15:00,80.1,0.0,29.94,NE,45,4.0,8.5,0,0.00,,,0.00,WUHU216HW,2013-07-08 15:15:00,
2013-07-08 11:20:00,79.9,0.0,29.95,SE,135,4.7,8.1,0,0.00,,,0.00,WUHU216HW,2013-07-08 15:20:00,
2013-07-08 11:25:00,79.9,0.0,29.94,NNE,23,7.6,7.6,0,0.00,,,0.00,WUHU216HW,2013-07-08 15:25:00,
2013-07-08 11:30:00,81.5,0.0,29.95,East,90,6.7,7.6,0,0.00,,,0.00,WUHU216HW,2013-07-08 15:30:00,
2013-07-08 11:35:00,82.4,0.0,29.94,ESE,113,4.5,7.6,0,0.00,,,0.00,WUHU216HW,2013-07-08 15:35:00,
2013-07-08 11:40:00,83.0,0.0,29.94,SSE,158,4.0,7.6,0,0.00,,,0.00,WUHU216HW,2013-07-08 15:40:00,
2013-07-08 11:45:00,82.4,0.0,29.94,SE,135,5.4,8.9,0,0.00,,,0.00,WUHU216HW,2013-07-08 15:45:00,
2013-07-08 11:50:00,82.1,0.0,29.95,East,90,5.4,8.9,0,0.00,,,0.00,WUHU216HW,2013-07-08 15:50:00,
2013-07-08 11:55:00,82.3,0.0,29.95,East,90,1.6,6.9,0,0.00,,,0.00,WUHU216HW,2013-07-08 15:55:00,
2013-07-08 12:00:00,82.3,0.0,29.95,SE,135,6.9,6.9,0,0.00,,,0.00,WUHU216HW,2013-07-08 16:00:00,
2013-07-08 12:05:00,82.8,0.0,29.95,ENE,68,4.0,6.9,0,0.00,,,0.00,WUHU216HW,2013-07-08 16:05:00,
2013-07-08 12:10:00,83.0,0.0,29.95,ESE,113,4.3,6.9,0,0.00,,,0.00,WUHU216HW,2013-07-08 16:10:00,
2013-07-08 12:15:00,82.1,0.0,29.95,SE,135,5.6,6.3,0,0.00,,,0.00,WUHU216HW,2013-07-08 16:15:00,
2013-07-08 12:20:00,81.0,0.0,29.95,East,90,2.0,6.3,0,0.00,,,0.00,WUHU216HW,2013-07-08 16:20:00,
2013-07-08 12:25:00,79.6,0.0,29.95,ESE,113,2.2,5.6,0,0.00,,,0.00,WUHU216HW,2013-07-08 16:25:00,
2013-07-08 12:30:00,79.6,0.0,29.96,SE,135,6.0,6.0,0,0.00,,,0.00,WUHU216HW,2013-07-08 16:30:00,
2013-07-08 12:35:00,79.6,0.0,29.96,SE,135,1.6,6.0,0,0.00,,,0.00,WUHU216HW,2013-07-08 16:35:00,
2013-07-08 12:40:00,79.4,0.0,29.96,ESE,113,2.5,6.0,0,0.00,,,0.00,WUHU216HW,2013-07-08 16:40:00,
2013-07-08 12:45:00,79.2,0.0,29.96,ESE,113,5.8,7.6,0,0.00,,,0.00,WUHU216HW,2013-07-08 16:45:00,
2013-07-08 12:50:00,79.9,0.0,29.96,ENE,68,2.5,8.5,0,0.00,,,0.00,WUHU216HW,2013-07-08 16:50:00,
2013-07-08 12:55:00,81.0,0.0,29.96,SE,135,4.0,8.5,0,0.00,,,0.00,WUHU216HW,2013-07-08 16:55:00,
2013-07-08 13:00:00,81.5,0.0,29.96,East,90,1.6,7.6,0,0.00,,,0.00,WUHU216HW,2013-07-08 17:00:00,
2013-07-08 13:05:00,81.7,0.0,29.96,SE,135,2.2,7.6,0,0.00,,,0.00,WUHU216HW,2013-07-08 17:05:00,
2013-07-08 13:10:00,81.2,0.0,29.96,ESE,113,3.6,4.7,0,0.00,,,0.00,WUHU216HW,2013-07-08 17:10:00,
2013-07-08 13:15:00,81.4,0.0,29.96,SSE,158,8.9,8.9,0,0.00,,,0.00,WUHU216HW,2013-07-08 17:15:00,
2013-07-08 13:20:00,81.7,0.0,29.96,East,90,4.7,8.9,0,0.00,,,0.00,WUHU216HW,2013-07-08 17:20:00,
2013-07-08 13:25:00,81.7,0.0,29.96,SE,135,4.5,8.9,0,0.00,,,0.00,WUHU216HW,2013-07-08 17:25:00,
2013-07-08 13:30:00,82.1,0.0,29.96,NE,45,3.4,8.5,0,0.00,,,0.00,WUHU216HW,2013-07-08 17:30:00,
2013-07-08 13:35:00,82.1,0.0,29.96,ESE,113,1.8,8.5,0,0.00,,,0.00,WUHU216HW,2013-07-08 17:35:00,
2013-07-08 13:40:00,81.7,0.0,29.96,East,90,2.9,6.9,0,0.00,,,0.00,WUHU216HW,2013-07-08 17:40:00,
2013-07-08 13:45:00,81.4,0.0,29.96,North,0,3.4,6.3,0,0.00,,,0.00,WUHU216HW,2013-07-08 17:45:00,
2013-07-08 13:50:00,81.2,0.0,29.96,East,90,3.1,6.3,0,0.00,,,0.00,WUHU216HW,2013-07-08 17:50:00,
2013-07-08 13:56:00,81.0,0.0,29.95,ESE,113,4.9,9.6,0,0.00,,,0.00,WUHU216HW,2013-07-08 17:56:00,
2013-07-08 14:01:00,81.2,0.0,29.95,ENE,68,3.8,9.6,0,0.00,,,0.00,WUHU216HW,2013-07-08 18:01:00,
2013-07-08 14:06:00,81.7,0.0,29.95,SE,135,4.9,6.3,0,0.00,,,0.00,WUHU216HW,2013-07-08 18:06:00,
2013-07-08 14:11:00,81.9,0.0,29.95,East,90,3.6,6.3,0,0.00,,,0.00,WUHU216HW,2013-07-08 18:11:00,
2013-07-08 14:16:00,81.4,0.0,29.96,SE,135,4.7,7.4,0,0.00,,,0.00,WUHU216HW,2013-07-08 18:16:00,
2013-07-08 14:21:00,80.6,0.0,29.96,NE,45,1.8,7.4,0,0.00,,,0.00,WUHU216HW,2013-07-08 18:21:00,
2013-07-08 14:27:00,80.3,0.0,29.95,ESE,113,2.7,6.7,0,0.00,,,0.00,WUHU216HW,2013-07-08 18:27:00,
2013-07-08 14:32:00,80.8,0.0,29.95,ESE,113,2.7,6.7,0,0.00,,,0.00,WUHU216HW,2013-07-08 18:32:00,
2013-07-08 14:37:00,80.8,0.0,29.95,ESE,113,2.7,3.4,0,0.00,,,0.00,WUHU216HW,2013-07-08 18:37:00,
2013-07-08 14:43:00,81.4,0.0,29.96,SE,135,4.9,5.6,0,0.00,,,0.00,WUHU216HW,2013-07-08 18:43:00,
2013-07-08 14:48:00,81.7,0.0,29.95,ESE,113,1.1,5.6,0,0.00,,,0.00,WUHU216HW,2013-07-08 18:48:00,
2013-07-08 14:53:00,81.9,0.0,29.96,NE,45,6.0,6.7,0,0.00,,,0.00,WUHU216HW,2013-07-08 18:53:00,
2013-07-08 14:58:00,81.7,0.0,29.96,NE,45,3.4,6.7,0,0.00,,,0.00,WUHU216HW,2013-07-08 18:58:00,
2013-07-08 15:03:00,81.0,0.0,29.96,SE,135,3.1,6.0,0,0.00,,,0.00,WUHU216HW,2013-07-08 19:03:00,
2013-07-08 15:08:00,79.9,0.0,29.96,ESE,113,2.5,6.5,0,0.00,,,0.00,WUHU216HW,2013-07-08 19:08:00,
2013-07-08 15:13:00,79.2,0.0,29.96,East,90,6.9,6.9,0,0.00,,,0.00,WUHU216HW,2013-07-08 19:13:00,
2013-07-08 15:18:00,79.7,0.0,29.95,NE,45,7.2,7.2,0,0.00,,,0.00,WUHU216HW,2013-07-08 19:18:00,
2013-07-08 15:23:00,80.1,0.0,29.95,SE,135,4.9,7.2,0,0.00,,,0.00,WUHU216HW,2013-07-08 19:23:00,
2013-07-08 15:29:00,80.3,0.0,29.95,NE,45,5.4,7.2,0,0.00,,,0.00,WUHU216HW,2013-07-08 19:29:00,
2013-07-08 15:34:00,80.1,0.0,29.96,SE,135,4.3,5.4,0,0.00,,,0.00,WUHU216HW,2013-07-08 19:34:00,
2013-07-08 15:39:00,79.7,0.0,29.96,NE,45,4.5,5.4,0,0.00,,,0.00,WUHU216HW,2013-07-08 19:39:00,
2013-07-08 15:45:00,80.1,0.0,29.96,SE,135,5.4,9.2,0,0.00,,,0.00,WUHU216HW,2013-07-08 19:45:00,
2013-07-08 15:50:00,79.9,0.0,29.96,NE,45,5.4,9.2,0,0.00,,,0.00,WUHU216HW,2013-07-08 19:50:00,
2013-07-08 15:55:00,79.9,0.0,29.96,SE,135,6.7,6.9,0,0.00,,,0.00,WUHU216HW,2013-07-08 19:55:00,
2013-07-08 16:00:00,79.6,0.0,29.97,WNW,293,3.4,6.7,0,0.00,,,0.00,WUHU216HW,2013-07-08 20:00:00,
2013-07-08 16:05:00,78.8,0.0,29.96,ESE,113,7.4,7.4,0,0.00,,,0.00,WUHU216HW,2013-07-08 20:05:00,
2013-07-08 16:11:00,79.4,0.0,29.96,SE,135,6.0,7.8,0,0.00,,,0.00,WUHU216HW,2013-07-08 20:11:00,
2013-07-08 16:16:00,79.9,0.0,29.95,ESE,113,4.7,7.8,0,0.00,,,0.00,WUHU216HW,2013-07-08 20:16:00,
2013-07-08 16:21:00,79.4,0.0,29.96,SE,135,1.8,6.7,0,0.00,,,0.00,WUHU216HW,2013-07-08 20:21:00,
2013-07-08 16:26:00,78.5,0.0,29.96,SE,135,2.7,4.7,0,0.00,,,0.00,WUHU216HW,2013-07-08 20:26:00,
2013-07-08 16:31:00,77.4,0.0,29.96,SSE,158,2.5,6.9,0,0.00,,,0.00,WUHU216HW,2013-07-08 20:31:00,
2013-07-08 16:36:00,76.7,0.0,29.96,East,90,4.0,7.2,0,0.00,,,0.00,WUHU216HW,2013-07-08 20:36:00,
2013-07-08 16:41:00,76.0,0.0,29.96,ESE,113,2.2,7.2,0,0.00,,,0.00,WUHU216HW,2013-07-08 20:41:00,
2013-07-08 16:46:00,75.6,0.0,29.96,ENE,68,3.8,6.7,0,0.00,,,0.00,WUHU216HW,2013-07-08 20:46:00,
2013-07-08 16:52:00,75.1,0.0,29.96,East,90,2.5,5.4,0,0.00,,,0.00,WUHU216HW,2013-07-08 20:52:00,
2013-07-08 16:57:00,74.5,0.0,29.97,NNE,23,1.6,6.9,0,0.00,,,0.00,WUHU216HW,2013-07-08 20:57:00,
2013-07-08 17:02:00,74.0,0.0,29.97,ESE,113,3.6,6.9,0,0.00,,,0.00,WUHU216HW,2013-07-08 21:02:00,
2013-07-08 17:07:00,73.4,0.0,29.98,ENE,68,3.8,6.9,0,0.00,,,0.00,WUHU216HW,2013-07-08 21:07:00,
2013-07-08 17:12:00,73.1,0.0,29.98,ESE,113,1.8,6.5,0,0.00,,,0.00,WUHU216HW,2013-07-08 21:12:00,
2013-07-08 17:17:00,72.7,0.0,29.98,ENE,68,7.2,7.2,0,0.00,,,0.00,WUHU216HW,2013-07-08 21:17:00,
2013-07-08 17:22:00,72.5,0.0,29.98,ENE,68,4.9,7.4,0,0.00,,,0.00,WUHU216HW,2013-07-08 21:22:00,
2013-07-08 17:27:00,72.4,0.0,29.98,SE,135,0.7,7.4,0,0.00,,,0.00,WUHU216HW,2013-07-08 21:27:00,
2013-07-08 17:32:00,72.2,0.0,29.99,NW,315,0.7,6.3,0,0.00,,,0.00,WUHU216HW,2013-07-08 21:32:00,
2013-07-08 17:37:00,72.0,0.0,29.99,South,180,1.6,2.5,0,0.01,,,0.01,WUHU216HW,2013-07-08 21:37:00,
2013-07-08 17:42:00,71.5,0.0,29.99,SE,135,1.6,1.6,0,0.02,,,0.02,WUHU216HW,2013-07-08 21:42:00,
2013-07-08 17:47:00,70.9,0.0,29.99,ESE,113,1.8,2.5,0,0.05,,,0.05,WUHU216HW,2013-07-08 21:47:00,
2013-07-08 17:53:00,70.6,0.0,29.99,ESE,113,3.1,3.1,0,0.07,,,0.07,WUHU216HW,2013-07-08 21:53:00,
2013-07-08 17:58:00,70.2,0.0,29.98,ESE,113,2.0,3.1,0,0.09,,,0.09,WUHU216HW,2013-07-08 21:58:00,
2013-07-08 18:03:00,69.8,0.0,29.98,ESE,113,1.1,3.1,0,0.10,,,0.10,WUHU216HW,2013-07-08 22:03:00,
2013-07-08 18:09:00,69.5,0.0,29.98,ESE,113,1.1,3.1,0,0.10,,,0.10,WUHU216HW,2013-07-08 22:09:00,
2013-07-08 18:14:00,69.1,0.0,29.97,SE,135,2.7,4.3,0,0.11,,,0.11,WUHU216HW,2013-07-08 22:14:00,
2013-07-08 18:19:00,69.1,0.0,29.97,ESE,113,4.3,4.3,0,0.11,,,0.11,WUHU216HW,2013-07-08 22:19:00,
2013-07-08 18:24:00,68.9,0.0,29.96,ESE,113,2.7,6.7,0,0.12,,,0.12,WUHU216HW,2013-07-08 22:24:00,
2013-07-08 18:29:00,68.9,0.0,29.96,SSE,158,1.3,6.7,0,0.12,,,0.12,WUHU216HW,2013-07-08 22:29:00,
2013-07-08 18:35:00,68.9,0.0,29.97,NE,45,2.9,5.6,0,0.11,,,0.12,WUHU216HW,2013-07-08 22:35:00,
2013-07-08 18:40:00,69.1,0.0,29.97,NNE,23,2.5,6.3,0,0.10,,,0.12,WUHU216HW,2013-07-08 22:40:00,
2013-07-08 18:45:00,69.1,0.0,29.98,SE,135,1.6,6.3,0,0.07,,,0.12,WUHU216HW,2013-07-08 22:45:00,
2013-07-08 18:50:00,69.1,0.0,29.98,NE,45,1.6,3.4,0,0.05,,,0.12,WUHU216HW,2013-07-08 22:50:00,
2013-07-08 18:55:00,68.9,0.0,29.98,NNE,23,4.0,4.0,0,0.03,,,0.12,WUHU216HW,2013-07-08 22:55:00,
2013-07-08 19:00:00,68.9,0.0,29.99,NNW,338,0.4,4.0,0,0.02,,,0.12,WUHU216HW,2013-07-08 23:00:00,
2013-07-08 19:06:00,68.8,0.0,30.00,SSE,158,0.9,4.0,0,0.02,,,0.12,WUHU216HW,2013-07-08 23:06:00,
2013-07-08 19:11:00,68.8,0.0,30.00,NW,315,1.6,1.8,0,0.01,,,0.12,WUHU216HW,2013-07-08 23:11:00,
2013-07-08 19:17:00,68.6,0.0,30.01,North,0,0.9,1.8,0,0.00,,,0.12,WUHU216HW,2013-07-08 23:17:00,
2013-07-08 19:22:00,68.2,0.0,30.01,NNE,23,1.8,5.1,0,0.00,,,0.12,WUHU216HW,2013-07-08 23:22:00,
2013-07-08 19:27:00,68.0,0.0,30.00,ENE,68,3.4,5.1,0,0.00,,,0.12,WUHU216HW,2013-07-08 23:27:00,
2013-07-08 19:32:00,68.0,0.0,30.00,East,90,2.0,3.6,0,0.00,,,0.12,WUHU216HW,2013-07-08 23:32:00,
2013-07-08 19:37:00,68.0,0.0,30.00,SE,135,1.1,3.4,0,0.00,,,0.12,WUHU216HW,2013-07-08 23:37:00,
2013-07-08 19:42:00,67.9,0.0,30.00,NE,45,0.9,2.5,0,0.00,,,0.12,WUHU216HW,2013-07-08 23:42:00,
2013-07-08 19:47:00,67.7,0.0,29.99,NE,45,5.4,6.0,0,0.00,,,0.12,WUHU216HW,2013-07-08 23:47:00,
2013-07-08 19:53:00,67.5,0.0,30.00,NE,45,4.0,6.0,0,0.00,,,0.12,WUHU216HW,2013-07-08 23:53:00,
2013-07-08 19:58:00,67.5,0.0,30.00,NE,45,0.0,5.4,0,0.00,,,0.12,WUHU216HW,2013-07-08 23:58:00,
2013-07-08 20:03:00,67.3,0.0,30.00,East,90,1.1,4.0,0,0.00,,,0.12,WUHU216HW,2013-07-09 00:03:00,
2013-07-08 20:08:00,67.0,0.0,30.00,East,90,1.8,2.5,0,0.00,,,0.12,WUHU216HW,2013-07-09 00:08:00,
2013-07-08 20:13:00,67.0,0.0,30.00,NNE,23,0.4,2.5,0,0.00,,,0.12,WUHU216HW,2013-07-09 00:13:00,
2013-07-08 20:18:00,66.8,0.0,30.01,NW,315,0.4,1.8,0,0.00,,,0.12,WUHU216HW,2013-07-09 00:18:00,
2013-07-08 20:23:00,66.8,0.0,30.01,NNE,23,0.4,0.9,0,0.00,,,0.12,WUHU216HW,2013-07-09 00:23:00,
2013-07-08 20:28:00,66.6,0.0,30.01,ENE,68,1.8,1.8,0,0.00,,,0.12,WUHU216HW,2013-07-09 00:28:00,
2013-07-08 20:33:00,66.4,0.0,30.01,NE,45,1.1,2.2,0,0.00,,,0.12,WUHU216HW,2013-07-09 00:33:00,
2013-07-08 20:39:00,66.2,0.0,30.01,ESE,113,1.1,2.2,0,0.00,,,0.12,WUHU216HW,2013-07-09 00:39:00,
2013-07-08 20:44:00,66.1,0.0,30.02,NW,315,0.4,1.8,0,0.00,,,0.12,WUHU216HW,2013-07-09 00:44:00,
2013-07-08 20:49:00,65.9,0.0,30.02,NE,45,1.1,2.5,0,0.00,,,0.12,WUHU216HW,2013-07-09 00:49:00,
2013-07-08 20:54:00,65.7,0.0,30.02,WNW,293,1.1,2.5,0,0.00,,,0.12,WUHU216HW,2013-07-09 00:54:00,
2013-07-08 20:59:00,65.7,0.0,30.03,West,270,1.1,2.5,0,0.00,,,0.12,WUHU216HW,2013-07-09 00:59:00,
2013-07-08 21:04:00,65.7,0.0,30.03,NNE,23,1.6,1.6,0,0.00,,,0.12,WUHU216HW,2013-07-09 01:04:00,
2013-07-08 21:10:00,65.7,0.0,30.03,NNE,23,4.0,4.0,0,0.00,,,0.12,WUHU216HW,2013-07-09 01:10:00,
2013-07-08 21:15:00,65.5,0.0,30.03,East,90,1.8,4.0,0,0.00,,,0.12,WUHU216HW,2013-07-09 01:15:00,
2013-07-08 21:20:00,65.5,0.0,30.03,NNE,23,2.0,2.0,0,0.00,,,0.12,WUHU216HW,2013-07-09 01:20:00,
2013-07-08 21:25:00,65.3,0.0,30.03,NE,45,0.0,2.0,0,0.00,,,0.12,WUHU216HW,2013-07-09 01:25:00,
2013-07-08 21:30:00,65.3,0.0,30.04,North,0,1.1,2.0,0,0.00,,,0.12,WUHU216HW,2013-07-09 01:30:00,
2013-07-08 21:35:00,65.3,0.0,30.04,NNE,23,0.9,1.8,0,0.00,,,0.12,WUHU216HW,2013-07-09 01:35:00,
2013-07-08 21:40:00,65.3,0.0,30.04,East,90,0.4,1.8,0,0.00,,,0.12,WUHU216HW,2013-07-09 01:40:00,
2013-07-08 21:45:00,65.3,0.0,30.04,NW,315,1.1,1.1,0,0.00,,,0.12,WUHU216HW,2013-07-09 01:45:00,
2013-07-08 21:50:00,65.3,0.0,30.04,NW,315,0.0,1.3,0,0.00,,,0.12,WUHU216HW,2013-07-09 01:50:00,
2013-07-08 21:55:00,65.3,0.0,30.04,NW,315,0.4,1.3,0,0.00,,,0.12,WUHU216HW,2013-07-09 01:55:00,
2013-07-08 22:00:00,65.2,0.0,30.03,ENE,68,2.5,2.7,0,0.00,,,0.12,WUHU216HW,2013-07-09 02:00:00,
2013-07-08 22:05:00,65.2,0.0,30.03,NNE,23,0.7,3.4,0,0.01,,,0.13,WUHU216HW,2013-07-09 02:05:00,
2013-07-08 22:10:00,65.2,0.0,30.03,WNW,293,1.1,3.4,0,0.01,,,0.13,WUHU216HW,2013-07-09 02:10:00,
2013-07-08 22:15:00,65.2,0.0,30.03,North,0,0.0,1.3,0,0.01,,,0.13,WUHU216HW,2013-07-09 02:15:00,
2013-07-08 22:20:00,65.2,0.0,30.03,East,90,1.1,2.2,0,0.01,,,0.13,WUHU216HW,2013-07-09 02:20:00,
2013-07-08 22:26:00,65.2,0.0,30.03,NW,315,0.9,2.2,0,0.01,,,0.13,WUHU216HW,2013-07-09 02:26:00,
2013-07-08 22:31:00,65.2,0.0,30.03,North,0,1.3,3.4,0,0.02,,,0.14,WUHU216HW,2013-07-09 02:31:00,
2013-07-08 22:36:00,65.0,0.0,30.03,ESE,113,0.7,3.4,0,0.03,,,0.15,WUHU216HW,2013-07-09 02:36:00,
2013-07-08 22:41:00,65.0,0.0,30.03,ENE,68,0.4,1.3,0,0.03,,,0.15,WUHU216HW,2013-07-09 02:41:00,
2013-07-08 22:46:00,65.0,0.0,30.04,ESE,113,0.7,1.8,0,0.04,,,0.16,WUHU216HW,2013-07-09 02:46:00,
2013-07-08 22:51:00,65.0,0.0,30.04,NW,315,0.4,2.0,0,0.04,,,0.16,WUHU216HW,2013-07-09 02:51:00,
2013-07-08 22:56:00,65.0,0.0,30.04,North,0,1.1,2.7,0,0.04,,,0.16,WUHU216HW,2013-07-09 02:56:00,
2013-07-08 23:01:00,65.0,0.0,30.04,ENE,68,0.2,2.7,0,0.03,,,0.16,WUHU216HW,2013-07-09 03:01:00,
2013-07-08 23:06:00,65.0,0.0,30.04,NW,315,0.4,1.3,0,0.03,,,0.16,WUHU216HW,2013-07-09 03:06:00,
2013-07-08 23:12:00,65.0,0.0,30.04,NW,315,0.0,1.3,0,0.03,,,0.16,WUHU216HW,2013-07-09 03:12:00,
2013-07-08 23:17:00,65.0,0.0,30.04,ENE,68,0.4,1.1,0,0.03,,,0.16,WUHU216HW,2013-07-09 03:17:00,
2013-07-08 23:22:00,64.8,0.0,30.05,NNE,23,0.7,1.8,0,0.03,,,0.16,WUHU216HW,2013-07-09 03:22:00,
2013-07-08 23:27:00,64.8,0.0,30.05,WSW,248,0.2,1.8,0,0.02,,,0.16,WUHU216HW,2013-07-09 03:27:00,
2013-07-08 23:32:00,64.8,0.0,30.05,NNE,23,0.4,2.0,0,0.01,,,0.16,WUHU216HW,2013-07-09 03:32:00,
2013-07-08 23:37:00,64.8,0.0,30.05,North,0,1.1,2.0,0,0.01,,,0.16,WUHU216HW,2013-07-09 03:37:00,
2013-07-08 23:43:00,64.8,0.0,30.05,NNW,338,0.0,1.3,0,0.00,,,0.16,WUHU216HW,2013-07-09 03:43:00,
2013-07-08 23:48:00,64.8,0.0,30.05,WNW,293,0.2,0.9,0,0.00,,,0.16,WUHU216HW,2013-07-09 03:48:00,
2013-07-08 23:53:00,64.8,0.0,30.05,West,270,0.0,0.9,0,0.00,,,0.16,WUHU216HW,2013-07-09 03:53:00,
2013-07-08 23:58:00,64.8,0.0,30.05,WSW,248,0.0,0.4,0,0.00,,,0.16,WUHU216HW,2013-07-09 03:58:00,